sat.trackr.live / text

‹ back to catalog

STARLINK-1454

NORAD 45671 · 2020-035Q

PAYLOAD ACTIVE UNKNOWN

§ Identity

Operator
Country
US
Launch date
2020-06-04
Launch site
AFETR
Launch vehicle
Mass (kg)
RCS (m²)

Purposes: comms

External: N2YO · Heavens-Above · Gunter

§ Orbital elements

Epoch: 2026-05-25T02:58:12.780192Z

Period
92.01 min
Inclination
53.0438°
Eccentricity
0.0002957
Mean motion
15.64978762 rev/d
Perigee alt
371.3 km
Apogee alt
375.3 km
Semi-major
6,751.4 km
B*
5.1301e-4
RAAN
41.3281°
Arg perigee
46.7954°
Mean anomaly
313.3307°
Rev number
33,083

§ Raw data

STARLINK-14541 45671U 20035Q   26145.12375903  .00051059  00000+0  51301-3 0  99932 45671  53.0438  41.3281 0002957  46.7954 313.3307 15.64978762330837

JSON: /api/v1/satellites/45671 · /tle

For live sub-satellite position, see the globe view (requires WebGL).

§ Visibility from observer

Set your observer location to see the next 7 days of passes ≥ 10°. The values pass through the URL so the page stays shareable.

No JS? Fill the form by hand. The geolocation button needs JavaScript.